| time (UTC) | temp C | wind direction | speed KPH | gust KPH | rain 1hr cm | rain 24hr cm | rain mn cm | humidity % | barometer mb |
| 20260506150035 | 13 | 106 | 17.7 | 32.2 | 0.00 | 0.00 | 0.00 | 90 | 1010.5 |
| 20260506144535 | 14 | 72 | 9.7 | 27.4 | 0.00 | 0.00 | 0.00 | 90 | 1010.7 |
| 20260506143034 | 14 | 94 | 14.5 | 32.2 | 0.00 | 0.00 | 0.00 | 89 | 1011.0 |
| 20260506141529 | 14 | 68 | 17.7 | 33.8 | 0.00 | 0.00 | 0.00 | 89 | 1011.0 |
| 20260506140034 | 14 | 117 | 11.3 | 37.0 | 0.00 | 0.00 | 0.00 | 90 | 1011.2 |
| 20260506134529 | 14 | 96 | 17.7 | 35.4 | 0.00 | 0.00 | 0.00 | 89 | 1011.2 |
| 20260506133028 | 13 | 68 | 14.5 | 33.8 | 0.00 | 0.00 | 0.00 | 90 | 1011.2 |
| 20260506131535 | 13 | 71 | 6.4 | 30.6 | 0.00 | 0.00 | 0.00 | 92 | 1011.1 |
| 20260506130026 | 13 | 117 | 14.5 | 27.4 | 0.00 | 0.00 | 0.00 | 91 | 1011.0 |
| 20260506124557 | 13 | 97 | 9.7 | 33.8 | 0.00 | 0.00 | 0.00 | 91 | 1011.1 |
| 20260506123111 | 13 | 83 | 12.9 | 33.8 | 0.00 | 0.00 | 0.00 | 91 | 1011.3 |
| 20260506121605 | 13 | 90 | 16.1 | 30.6 | 0.00 | 0.00 | 0.00 | 91 | 1011.5 |
| 20260506120052 | 13 | 63 | 19.3 | 32.2 | 0.00 | 0.00 | 0.00 | 91 | 1011.3 |
| 20260506114552 | 13 | 82 | 11.3 | 27.4 | 0.00 | 0.00 | 0.00 | 92 | 1011.2 |
| 20260506113051 | 13 | 82 | 11.3 | 33.8 | 0.00 | 0.00 | 0.00 | 93 | 1011.1 |
| 20260506111526 | 13 | 94 | 6.4 | 30.6 | 0.00 | 0.00 | 0.00 | 94 | 1011.2 |
| 20260506110020 | 13 | 86 | 8.0 | 24.1 | 0.00 | 0.00 | 0.00 | 93 | 1011.1 |
| 20260506104517 | 13 | 60 | 9.7 | 25.7 | 0.00 | 0.00 | 0.00 | 94 | 1011.1 |
| 20260506103016 | 13 | 66 | 11.3 | 27.4 | 0.00 | 0.00 | 0.00 | 94 | 1011.0 |
| 20260506101516 | 12 | 60 | 11.3 | 33.8 | 0.00 | 0.00 | 0.00 | 94 | 1011.1 |
| 20260506100014 | 12 | 79 | 9.7 | 29.0 | 0.00 | 0.00 | 0.00 | 94 | 1010.9 |
| 20260506094543 | 12 | 79 | 6.4 | 29.0 | 0.00 | 0.00 | 0.00 | 94 | 1010.9 |
| 20260506093044 | 13 | 86 | 14.5 | 30.6 | 0.00 | 0.00 | 0.00 | 94 | 1011.0 |
| 20260506091511 | 13 | 88 | 16.1 | 32.2 | 0.00 | 0.00 | 0.00 | 94 | 1010.9 |
| 20260506090009 | 13 | 105 | 11.3 | 40.2 | 0.00 | 0.00 | 0.00 | 94 | 1010.9 |
| 20260506084544 | 13 | 68 | 17.7 | 37.0 | 0.00 | 0.00 | 0.00 | 94 | 1011.0 |
| 20260506083038 | 13 | 110 | 11.3 | 29.0 | 0.00 | 0.00 | 0.00 | 94 | 1011.1 |
| 20260506081530 | 13 | 105 | 12.9 | 29.0 | 0.00 | 0.00 | 0.00 | 93 | 1011.2 |
| 20260506073027 | 13 | 95 | 12.9 | 30.6 | 0.00 | 0.00 | 0.00 | 92 | 1011.7 |
| 20260506071524 | 13 | 96 | 9.7 | 24.1 | 0.00 | 0.00 | 0.00 | 91 | 1011.8 |
| 20260506061515 | 13 | 109 | 16.1 | 33.8 | 0.00 | 0.00 | 0.00 | 91 | 1011.4 |
| 20260506044513 | 14 | 96 | 22.5 | 48.3 | 0.00 | 0.00 | 0.00 | 88 | 1011.5 |
| 20260506043005 | 14 | 109 | 16.1 | 38.6 | 0.00 | 0.00 | 0.00 | 88 | 1011.7 |
| 20260506041506 | 13 | 105 | 14.5 | 30.6 | 0.00 | 0.00 | 0.00 | 89 | 1011.8 |
| 20260506041504 | 13 | 64 | 14.5 | 30.6 | 0.00 | 0.00 | 0.00 | 89 | 1011.8 |
| 20260506040001 | 13 | 107 | 14.5 | 30.6 | 0.00 | 0.00 | 0.00 | 89 | 1011.8 |
| 20260506034603 | 13 | 77 | 14.5 | 35.4 | 0.00 | 0.00 | 0.00 | 89 | 1012.0 |
| 20260506033059 | 13 | 75 | 16.1 | 32.2 | 0.00 | 0.00 | 0.00 | 89 | 1012.0 |
| 20260506031558 | 13 | 117 | 12.9 | 37.0 | 0.00 | 0.00 | 0.00 | 89 | 1011.9 |
| 20260506030057 | 13 | 128 | 9.7 | 24.1 | 0.00 | 0.00 | 0.00 | 89 | 1012.1 |
| 20260506024606 | 13 | 103 | 14.5 | 29.0 | 0.00 | 0.00 | 0.00 | 89 | 1012.0 |
| 20260506023108 | 13 | 104 | 12.9 | 30.6 | 0.00 | 0.00 | 0.00 | 89 | 1012.0 |
| 20260506021553 | 13 | 110 | 11.3 | 30.6 | 0.00 | 0.00 | 0.00 | 89 | 1012.0 |
| 20260506020054 | 13 | 81 | 9.7 | 29.0 | 0.00 | 0.00 | 0.00 | 88 | 1011.9 |
| 20260506014548 | 13 | 65 | 8.0 | 29.0 | 0.00 | 0.00 | 0.00 | 88 | 1011.8 |
| 20260506013054 | 13 | 52 | 14.5 | 33.8 | 0.00 | 0.00 | 0.00 | 87 | 1011.7 |
| 20260506011547 | 13 | 103 | 14.5 | 32.2 | 0.00 | 0.00 | 0.00 | 87 | 1011.5 |
| 20260506010040 | 13 | 40 | 14.5 | 38.6 | 0.00 | 0.00 | 0.00 | 85 | 1011.4 |
| 20260506004539 | 14 | 80 | 17.7 | 45.1 | 0.00 | 0.00 | 0.00 | 84 | 1011.0 |
| 20260506003037 | 14 | 94 | 19.3 | 49.9 | 0.00 | 0.00 | 0.00 | 84 | 1010.7 |
| 20260506001537 | 14 | 53 | 16.1 | 48.3 | 0.00 | 0.00 | 0.00 | 83 | 1010.6 |
| 20260506000034 | 14 | 50 | 24.1 | 41.8 | 0.00 | 0.00 | 0.00 | 84 | 1010.4 |
| 20260505234533 | 14 | 115 | 20.9 | 46.7 | 0.00 | 0.00 | 0.00 | 85 | 1010.1 |
| 20260505233030 | 14 | 77 | 25.7 | 45.1 | 0.00 | 0.00 | 0.00 | 84 | 1009.9 |
| 20260505231529 | 14 | 108 | 25.7 | 41.8 | 0.00 | 0.00 | 0.00 | 84 | 1009.8 |
| 20260505230121 | 14 | 39 | 20.9 | 37.0 | 0.00 | 0.00 | 0.00 | 84 | 1009.8 |
| 20260505224556 | 15 | 94 | 20.9 | 37.0 | 0.00 | 0.00 | 0.00 | 84 | 1009.6 |
| 20260505223057 | 15 | 52 | 24.1 | 46.7 | 0.00 | 0.00 | 0.00 | 83 | 1009.6 |
| 20260505221557 | 15 | 55 | 25.7 | 48.3 | 0.00 | 0.00 | 0.00 | 83 | 1009.4 |
| 20260505220055 | 14 | 103 | 20.9 | 49.9 | 0.00 | 0.00 | 0.00 | 84 | 1009.4 |
| 20260505214548 | 15 | 122 | 24.1 | 43.5 | 0.00 | 0.00 | 0.00 | 83 | 1009.2 |
| 20260505213045 | 15 | 77 | 24.1 | 41.8 | 0.00 | 0.00 | 0.00 | 82 | 1009.0 |
| 20260505211554 | 15 | 106 | 20.9 | 48.3 | 0.00 | 0.00 | 0.00 | 82 | 1009.0 |
| 20260505210041 | 15 | 102 | 24.1 | 46.7 | 0.00 | 0.00 | 0.00 | 82 | 1008.8 |
| 20260505204540 | 15 | 129 | 19.3 | 37.0 | 0.00 | 0.00 | 0.00 | 81 | 1008.9 |
| 20260505203036 | 15 | 44 | 12.9 | 38.6 | 0.00 | 0.00 | 0.00 | 82 | 1009.0 |
| 20260505201533 | 15 | 56 | 17.7 | 41.8 | 0.00 | 0.00 | 0.00 | 81 | 1009.1 |
| 20260505200038 | 15 | 92 | 12.9 | 35.4 | 0.00 | 0.00 | 0.00 | 82 | 1009.3 |
| 20260505194529 | 15 | 136 | 11.3 | 27.4 | 0.00 | 0.00 | 0.00 | 83 | 1009.7 |
| 20260505193024 | 15 | 131 | 8.0 | 27.4 | 0.00 | 0.00 | 0.00 | 83 | 1009.8 |
| 20260505191527 | 15 | 46 | 12.9 | 30.6 | 0.00 | 0.00 | 0.00 | 84 | 1010.1 |
| 20260505190018 | 15 | 98 | 6.4 | 27.4 | 0.00 | 0.00 | 0.00 | 85 | 1010.7 |
| 20260505184515 | 14 | 66 | 11.3 | 30.6 | 0.00 | 0.00 | 0.00 | 85 | 1010.9 |
| 20260505183010 | 14 | 84 | 17.7 | 30.6 | 0.00 | 0.00 | 0.00 | 84 | 1011.1 |
| 20260505181507 | 14 | 72 | 9.7 | 30.6 | 0.00 | 0.00 | 0.00 | 86 | 1011.1 |
| 20260505180005 | 14 | 65 | 16.1 | 32.2 | 0.00 | 0.00 | 0.00 | 85 | 1011.1 |
| 20260505174503 | 14 | 105 | 8.0 | 37.0 | 0.00 | 0.00 | 0.00 | 87 | 1011.1 |
| 20260505173101 | 14 | 58 | 19.3 | 33.8 | 0.00 | 0.00 | 0.00 | 86 | 1011.3 |
| 20260505171601 | 14 | 86 | 14.5 | 30.6 | 0.00 | 0.00 | 0.00 | 87 | 1011.3 |
| 20260505170059 | 13 | 68 | 19.3 | 32.2 | 0.00 | 0.00 | 0.00 | 87 | 1011.3 |
| 20260505164602 | 13 | 75 | 16.1 | 32.2 | 0.00 | 0.00 | 0.00 | 86 | 1011.4 |
| 20260505163103 | 13 | 71 | 11.3 | 29.0 | 0.00 | 0.00 | 0.00 | 86 | 1011.7 |
| 20260505161608 | 14 | 79 | 8.0 | 19.3 | 0.00 | 0.00 | 0.00 | 87 | 1011.9 |
| 20260505153056 | 14 | 70 | 6.4 | 22.5 | 0.00 | 0.00 | 0.00 | 88 | 1012.1 |
| 20260505153054 | 14 | 68 | 6.4 | 22.5 | 0.00 | 0.00 | 0.00 | 88 | 1012.1 |
| 20260505151522 | 13 | 87 | 14.5 | 32.2 | 0.00 | 0.00 | 0.00 | 87 | 1012.3 |